Location: Lourdes
(43.1000°N, 0.0500°W)
Time: 12:03:33
(UTC+00:00)

Cosmos 1934 Rocket - Pass Details

Date: 30 November 2020
Orbit: 937 x 1000 km, 83.0° (Epoch: 25 January)

Event Time Altitude Azimuth Distance (km) Brightness Sun altitude
Rises 18:36:01 0° 355° (N) 3,732 7.0 -23.0°
Reaches altitude 10° 18:38:37 10° 359° (N) 2,776 6.3 -23.5°
Maximum altitude 18:44:54 59° 79° (E) 1,140 4.0 -24.7°
Drops below altitude 10° 18:51:05 10° 158° (SSE) 2,728 6.2 -25.8°
Sets 18:53:37 0° 162° (SSE) 3,663 6.9 -26.2°
